Location: Del Oro Observatory
(38.3044°N, 104.8119°W)
Time: 15:44:17
(UTC-06:00)

Daily predictions for brighter satellites

Satellite Brightness Start Highest point End
(mag) Time Altitude Azimuth Time Altitude Azimuth Time Altitude Azimuth
Meteor 1-23 Rocket 4.3 19:46:47 10° N 19:52:28 88° E 19:58:13 10° S
Cosmos 2227 Rocket 2.3 19:50:33 10° NNW 19:56:12 65° ENE 20:01:47 10° SSE
NOAA 12 4.4 19:51:55 10° S 19:57:08 72° WSW 20:02:22 10° NNW
SJ-6B 3.9 19:54:06 10° S 19:57:42 46° W 20:01:19 10° NNW
NOSS 3-4 (A) 4.0 19:54:32 10° NW 20:01:38 81° WSW 20:09:07 10° SSE
NOSS 3-4 (C) 4.0 19:54:40 10° NW 20:01:46 82° WSW 20:09:15 10° SSE
Resurs 1-3 3.6 19:58:59 10° SSE 20:03:20 72° ENE 20:07:43 10° N
CZ-4B DEB 3.1 20:01:36 10° SSE 20:04:44 46° ENE 20:07:55 10° N
FengYun 1-2 T 4.3 19:59:53 10° SSE 20:05:28 70° ENE 20:11:03 10° N
Okean 2 3.5 20:02:35 10° N 20:06:46 84° W 20:10:54 10° S
Helios 1B rocket 3.1 20:04:24 10° N 20:08:28 62° WNW 20:12:30 10° SSW
Cosmos 2123 Rocket 4.0 20:02:36 10° N 20:08:47 69° E 20:14:56 10° SSE
Cosmos 2297 Rocket 2.3 20:05:27 10° NNW 20:11:05 62° ENE 20:16:40 10° SE
Cosmos 2082 3.7 20:07:18 10° NNW 20:12:57 84° ENE 20:18:35 10° SSE
SL-24 R/B - RUBIN 2 4.4 20:09:43 10° SSW 20:15:29 82° ESE 20:21:57 10° NNE
Meteor 1-12 Rocket 4.3 20:12:12 10° S 20:17:51 64° E 20:23:38 10° NNE
Spot 2 Rocket 4.1 20:13:42 10° S 20:18:43 60° WSW 20:23:45 10° NNW
ATLAS 2A CENTAUR R/B 3.9 20:18:24 10° SW 20:18:51 10° SW 20:19:16 10° SW
Cosmos 1346 Rocket 3.2 20:15:59 10° NNW 20:19:56 68° W 20:23:54 10° S
Cosmos 1515 4.4 20:16:42 10° NNE 20:20:13 33° ENE 20:23:40 10° SE
Iridium 4 Rocket 3.8 20:16:43 10° NNE 20:21:18 39° E 20:25:29 10° SSE
Lacrosse 5 2.4 20:24:30 10° NNW 20:29:22 45° NE 20:32:58 17° ESE
Envisat 4.3 20:26:38 15° ESE 20:29:23 22° ENE 20:33:14 10° NNE
Resurs 01 Rocket 3.0 20:26:06 10° S 20:30:17 41° W 20:34:31 10° NNW
Cosmos 1937 Rocket 4.2 20:26:38 10° N 20:31:31 37° ENE 20:35:08 17° SE
Centaur D-1A AC-32 4.0 20:30:53 10° SW 20:33:05 14° SSW 20:34:54 10° SSE
BREEZE-M DEB (TANK) 3.8 20:32:07 10° NNW 20:33:36 15° NNE 20:35:26 11° ENE
Cosmos 2298 Rocket 4.1 20:30:05 10° NNW 20:35:22 62° ENE 20:40:11 12° SSE
Cosmos 1743 3.7 20:34:26 16° SE 20:36:42 28° E 20:40:04 10° NNE
Cosmos 1153 Rocket 4.4 20:32:42 10° S 20:38:52 76° E 20:45:00 10° N
Cosmos 1697 Rocket 2.6 20:38:05 10° SSW 20:43:45 82° ESE 20:49:25 10° NNE
Cosmos 1447 Rocket 4.5 20:40:58 10° N 20:47:19 80° E 20:53:40 10° S
Cosmos 1066 Rocket 4.3 20:44:30 10° N 20:50:11 65° E 20:55:20 13° SSE
ERS-1 Rocket 3.3 20:48:35 22° SE 20:51:31 45° ENE 20:56:17 10° N
CZ-4 DEB 3.2 20:51:47 37° E 20:52:15 40° ENE 20:55:14 10° N
RESURS DK-1 2.5 20:48:59 10° NNW 20:53:04 55° ENE 20:54:48 31° SE
OTV 4 2.8 20:51:58 10° WSW 20:53:41 14° SSW 20:54:31 13° S
Cosmos 1802 Rocket 4.2 20:49:56 10° SSE 20:56:04 51° E 21:02:15 10° NNE
SL-16 R/B 3.6 20:57:52 19° ENE 20:57:52 19° ENE 21:00:23 10° NE
USA 186 2.4 20:54:35 13° S 20:57:10 50° W 20:59:57 10° NNW
Cosmos 2150 Rocket 3.9 20:55:29 10° NNW 21:00:39 89° WSW 21:04:23 19° SSE
Cosmos 1825 Rocket 3.8 20:58:33 10° N 21:02:50 47° E 21:04:05 36° SE
Cosmos 2016 Rocket 4.2 20:58:34 15° SSE 21:03:26 47° E 21:09:20 10° NNE
Cosmos 1763 Rocket 3.4 20:58:52 10° S 21:03:51 56° ESE 21:08:48 10° NNE
ALOS 3.5 20:59:33 10° S 21:03:58 42° W 21:08:25 10° NNW
H-2A R/B 3.9 21:00:18 10° S 21:04:00 43° W 21:07:47 10° NNW
OAO 2 Rocket 3.5 21:00:24 10° W 21:05:18 58° S 21:07:11 35° SE
Cosmos 1980 Rocket 2.1 21:02:07 10° SSW 21:07:46 78° ESE 21:13:28 10° NNE
Cosmos 1898 Rocket 3.9 21:08:24 10° NNW 21:13:38 64° WSW 21:17:25 18° S
Cosmos 1953 Rocket 3.8 21:10:11 10° N 21:14:30 47° E 21:15:00 45° E
H-2A R/B 2.6 21:15:02 37° ENE 21:15:02 37° ENE 21:18:49 10° N
Cosmos 2173 Rocket 3.9 21:09:00 10° S 21:15:21 84° E 21:21:43 10° N
Cosmos 2098 Rocket 4.3 21:12:46 26° SSE 21:16:12 46° E 21:21:41 10° NNE
Cosmos 2084 4.4 21:13:14 10° NW 21:17:08 42° WSW 21:19:05 25° S
Cosmos 1666 4.1 21:20:20 26° NE 21:20:20 26° NE 21:22:20 10° NNE
Cosmos 1125 Rocket 4.4 21:15:13 10° N 21:19:46 29° ENE 21:20:07 29° ENE
Tiangong 1 1.5 21:19:36 10° WNW 21:22:11 58° WNW 21:22:11 58° WNW
DELTA 2 R/B (1) 4.2 21:17:40 10° W 21:22:57 45° SSW 21:24:35 35° SSE
BREEZE-M DEB (TANK) 4.1 21:07:30 10° WSW 21:24:07 77° NNW 21:27:44 19° ENE
Nimbus 7 Rocket 4.4 21:20:26 10° NNE 21:26:26 59° ESE 21:29:40 28° S
YAOGAN 6 4.3 21:28:05 23° NE 21:28:05 23° NE 21:30:00 10° N
Cosmos 967 Rocket 4.4 21:21:07 10° NNW 21:27:28 73° ENE 21:29:37 43° SE
YAOGAN 11 4.4 21:25:40 31° S 21:27:42 66° WSW 21:32:08 10° NNW
Cosmos 841 Rocket 3.4 21:22:59 10° SSW 21:28:14 84° ESE 21:33:28 10° NNE
Lacrosse 5 rocket 3.7 21:26:59 10° W 21:28:27 12° WSW 21:29:55 10° SW
Cosmos 2100 Rocket 4.3 21:26:16 10° SSW 21:32:29 65° W 21:38:41 10° N
Cosmos 1758 Rocket 3.5 21:28:37 10° N 21:32:43 63° ENE 21:32:43 63° ENE
Cosmos 2263 Rocket 3.6 21:30:13 10° N 21:34:27 22° NE 21:34:32 22° ENE
ASTEX 1 3.3 21:33:23 10° NNE 21:38:22 64° E 21:38:30 64° ESE
Cosmos 1340 2.9 21:35:10 10° NNW 21:38:50 68° W 21:38:50 68° W
Cosmos 2322 Rocket 2.2 21:42:29 54° E 21:42:29 54° E 21:47:26 10° NNE
deb Chang Zheng 4 3.5 21:38:23 10° NNE 21:42:52 89° ESE 21:43:01 84° S
Tsikada Rocket 4.0 21:39:59 10° N 21:46:21 61° E 21:47:16 56° ESE
Meteor 1-15 Rocket 4.2 21:50:28 61° SSE 21:51:28 76° E 21:57:19 10° NNE
MetOp-A 3.9 21:54:18 77° ESE 21:54:33 80° ENE 21:59:55 10° N
Meteor 2-9 Rocket 4.0 21:54:07 60° SSW 21:55:09 88° W 22:00:35 10° N
Cosmos 2058 Rocket 3.4 21:59:39 65° WNW 21:59:39 65° WNW 22:03:57 10° N
Cosmos 1939 Rocket 4.2 22:00:05 34° WSW 22:00:33 35° W 22:04:23 10° NNW
Cosmos 1816 Rocket 4.4 21:56:40 10° N 22:03:01 65° E 22:03:06 65° E
Cosmos 1725 Rocket 3.9 22:02:49 50° SSW 22:04:34 83° W 22:10:50 10° N
Envisat 4.0 22:06:51 35° SW 22:08:07 41° W 22:12:54 10° NNW
Lacrosse 5 3.3 22:07:51 10° WNW 22:12:08 28° WSW 22:12:11 28° WSW
SPOT 5 3.5 22:17:27 53° W 22:17:27 53° W 22:21:53 10° NNW
Cosmos 2233 Rocket 4.0 22:27:35 75° N 22:27:35 75° N 22:33:16 10° N
H-2A R/B 3.5 22:37:07 29° N 22:37:07 29° N 22:39:39 10° N
Terra 3.7 22:38:08 23° NNE 22:38:08 23° NNE 22:40:03 10° N
ARGOS 3.8 22:39:15 52° NW 22:39:15 52° NW 22:43:25 10° NNW
SL-16 R/B 2.9 22:39:37 49° WNW 22:39:56 50° WNW 22:45:27 10° NNE
Cosmos 2360 Rocket 4.1 22:56:06 20° NNE 22:56:06 20° NNE 22:57:47 10° NNE
USA 215 3.8 23:08:54 51° N 23:08:54 51° N 23:14:22 10° NW
Cosmos 2263 Rocket 3.8 23:13:16 10° NNW 23:16:14 31° NW 23:16:14 31° NW
Cosmos 2322 Rocket 4.4 23:24:09 16° W 23:26:22 20° NW 23:30:29 10° N
